Weather Roundup
Issued by NWS Chicago, IL

Home | Current Version | Previous Version | Text Only | Print | Product List | Glossary On
Versions: 1 2 3 4 5 6 7 8 9 10 11 12 13 14 15 16 17 18 19 20 21 22 23 24 25 26 27 28 29 30 31 32 33 34 35 36 37 38 39 40 41 42 43 44 45 46 47 48 49 50
000
NZUS59 KLOT 130808
HRRLOT

CHICAGO AREA WEATHER ROUNDUP
NATIONAL WEATHER SERVICE CHICAGO/ROMEOVILLE IL
200 AM CST SAT FEB 13 2016

NOTE: "FAIR" INDICATES FEW OR NO CLOUDS BELOW 12,000 FEET WITH NO
SIGNIFICANT WEATHER AND/OR OBSTRUCTIONS TO VISIBILITY.

* THESE STATIONS ARE NOT UNDER NWS QUALITY CONTROL. THEY ALSO MAY NOT
  REPORT WEATHER SUCH AS PRECIPITATION OR FOG.

ILZ005-006-012>014-019>023-130900-
NORTHEAST ILLINOIS

CITY           SKY/WX    TMP DP  RH WIND       PRES   REMARKS
OHARE          CLEAR      5 -11  47 NW16      30.50R WCI -14
MIDWAY         PTCLDY     7 -12  41 NW17G23   30.51R WCI -12
AURORA         CLEAR      6  -8  52 N12       30.54R WCI  -9
LANSING*       CLEAR      7  -9  49 NW12G18   30.50R WCI  -9
JOLIET*        PTCLDY     8  -8  48 N10       30.53R WCI  -7
WAUKEGAN       CLEAR      3 -11  52 NW9       30.49R WCI -12
DUPAGE AIRPORT CLEAR      4 -10  52 NW15G22   30.51R WCI -14
WHEELING       CLEAR      4 -11  50 N14       30.52R WCI -14
KANKAKEE*      PTCLDY     8  -8  47 NW13G18   30.52R WCI  -7
MORRIS*        PTCLDY     7  -7  52 N9        30.50R WCI  -7
LEWIS AIRPORT* PTCLDY     6 -10  48 N15       30.52R WCI -12
$$

WIZ051-052-058>065-066-070>072-130900-
SOUTHEAST WISCONSIN

CITY           SKY/WX    TMP DP  RH WIND       PRES   REMARKS
MILWAUKEE      CLEAR      3 -12  49 NW13      30.49R WCI -14
KENOSHA*       CLEAR      3 -10  54 NW14G22   30.49R WCI -15
RACINE*        CLEAR      3 -12  49 NW14      30.50R WCI -15
BURLINGTON     CLEAR      1 -12  55 NW12G17   30.50R WCI -16
WAUKESHA       CLEAR      0 -13  55 W15       30.49R WCI -20
$$

INZ001>003-010>013-019-020-130900-
NORTHWEST INDIANA

CITY           SKY/WX    TMP DP  RH WIND       PRES   REMARKS
GARY*          MOCLDY    10  -8  44 W15       30.50R WCI  -7
MICHIGAN CITY* NOT AVBL
RENSSELAER*    NOT AVBL
VALPARAISO     CLOUDY    11   0  61 NW14G24   30.44R WCI  -5
$$

LMZ740>746-130900-
SOUTHERN LAKE MICHIGAN

STATION/POSITION TIME  SKY/WX   TEMP WIND        PRES    VSBY
                                AIR  DIR/SP/G
                 (UTC)          (F)  (DEG/KT/KT) (MB)    (MI)
HARRISON CRIB    0700             9  320/ 22/ 25   N/A
BURNHAM HARBOR   0800             8  310/  9/ 18   N/A
CALUMET HARBOR   0700             8  310/ 10/ 16 1031.4
BURNS HARBOR     0713            13  320/ 18/ 25 1030.1S
MICHIGAN CITY    0700            13  300/ 26/ 30   N/A
$$

ABBREVIATIONS USED IN REMARKS
   TC - TEMPERATURE IN CELSIUS
  WCI - WIND CHILL INDEX
   HX - HEAT INDEX
  VSB - VISIBILITY
$$



USA.gov is the U.S. government's official web portal to all federal, state and local government web resources and services.